Bismarck, ND

7:21 PM CDT on July 25, 2017 (GMT -0500)
Bismarck Municipal

Weather History for KBIS - October, 2012

Change the Weather History Date:

Friday, October 5, 2012

  Actual Average Record
Temperature  
Mean Temperature 33 °F 50 °F  
Max Temperature 40 °F 63 °F 90 °F (1949)
Min Temperature 26 °F 37 °F 18 °F (1935)
Degree Days  
Heating Degree Days 32 15  
Month to date heating degree days 95 72  
Since 1 July heating degree days 327 358  
Cooling Degree Days 0 0  
Month to date cooling degree days 0 0  
Year to date cooling degree days 599 519  
Moisture  
Dew Point 22 °F    
Average Humidity 65    
Maximum Humidity 85    
Minimum Humidity 44    
Precipitation  
Precipitation T in 0.04 in 1.12 in (1972)
Month to date precipitation 0.50 0.22  
Year to date precipitation 12.68 15.62  
Snow  
Snow 0.00 in 0.00 in 0.90 in (2005)
Month to date snowfall T 0.1  
Since 1 July snowfall T 0.3  
Since 1 September snowfall T 0.3  
Snow Depth T in    
Sea Level Pressure  
Sea Level Pressure 30.40 in    
Wind  
Wind Speed 10 mph (NW)    
Max Wind Speed 24 mph    
Max Gust Speed 32 mph    
Visibility 10 miles    
Events      
T = Trace of Precipitation, MM = Missing Value Source: NWS Daily Summary

Daily Weather History Graph

Daily Weather History Graph

Search for Another Location

Airport or City:

Trip Planner

Search our weather history database for the weather conditions in past years. The results will help you decide how hot, cold, wet, or windy it might be!

Date:

Astronomy

Oct. 05, 2012 Rise Set
Actual Time 7:47 AM CDT 7:13 PM CDT
Civil Twilight 7:17 AM CDT 7:44 PM CDT
Nautical Twilight 6:42 AM CDT 8:19 PM CDT
Astronomical Twilight 6:06 AM CDT 8:54 PM CDT
Moon 10:21 PM CDT (10/5) 1:14 PM CDT (10/5)
Length of Visible Light 12h 26m
Length of Day
11h 26m
Waning Gibbous, 74% of the Moon is Illuminated
Oct 5
Waning Gibbous
Oct 8
Last Quarter
Oct 15
New
Oct 21
First Quarter
Oct 29
Full

Hourly Weather History & Observations

Time (CDT) Temp. Windchill Dew Point Humidity Pressure Visibility Wind Dir Wind Speed Gust Speed Precip Events Conditions
12:52 AM 30.9 °F 22.8 °F 25.0 °F 79% 30.38 in 10.0 mi WNW 9.2 mph - N/A   Clear
1:52 AM 30.0 °F 23.2 °F 25.0 °F 82% 30.38 in 10.0 mi West 6.9 mph - N/A   Clear
2:52 AM 28.4 °F 22.2 °F 24.8 °F 86% 30.32 in 10.0 mi WNW 5.8 mph - N/A   Clear
3:52 AM 28.9 °F 22.8 °F 24.1 °F 82% 30.37 in 10.0 mi WNW 5.8 mph - N/A   Clear
4:52 AM 28.0 °F 21.7 °F 23.0 °F 81% 30.39 in 10.0 mi NW 5.8 mph - N/A   Clear
5:52 AM 27.0 °F 18.7 °F 23.0 °F 85% 30.39 in 10.0 mi NW 8.1 mph - N/A   Clear
6:52 AM 27.0 °F 18.7 °F 21.9 °F 81% 30.39 in 10.0 mi NW 8.1 mph - N/A   Clear
7:52 AM 27.0 °F 19.5 °F 21.0 °F 78% 30.41 in 10.0 mi WNW 6.9 mph - N/A   Clear
8:52 AM 28.0 °F 18.1 °F 21.0 °F 75% 30.42 in 10.0 mi NW 11.5 mph - N/A   Clear
9:52 AM 28.4 °F 19.7 °F 21.2 °F 74% 30.36 in 10.0 mi NW 9.2 mph - N/A   Mostly Cloudy
10:52 AM 30.0 °F 16.6 °F 19.9 °F 66% 30.44 in 10.0 mi NNW 23.0 mph 32.2 mph N/A   Overcast
11:52 AM 32.0 °F 21.6 °F 19.4 °F 60% 30.37 in 10.0 mi North 15.0 mph 26.5 mph N/A   Mostly Cloudy
12:47 PM 33.8 °F 23.9 °F 19.4 °F 56% 30.37 in 10.0 mi NW 15.0 mph 21.9 mph N/A   Mostly Cloudy
12:52 PM 35.1 °F 26.4 °F 19.9 °F 54% 30.44 in 10.0 mi NNW 12.7 mph 23.0 mph N/A   Mostly Cloudy
1:52 PM 37.4 °F 27.5 °F 19.4 °F 48% 30.36 in 10.0 mi NNW 18.4 mph 23.0 mph N/A   Partly Cloudy
2:52 PM 37.9 °F 28.9 °F 19.9 °F 48% 30.41 in 10.0 mi North 16.1 mph 25.3 mph N/A   Clear
3:52 PM 39.0 °F 31.4 °F 19.9 °F 46% 30.40 in 10.0 mi NW 12.7 mph 21.9 mph N/A   Clear
4:52 PM 39.0 °F 29.6 °F 19.9 °F 46% 30.40 in 10.0 mi North 18.4 mph - N/A   Clear
5:52 PM 37.0 °F 28.9 °F 19.0 °F 48% 30.41 in 10.0 mi NNW 12.7 mph 20.7 mph N/A   Clear
6:52 PM 36.0 °F 28.5 °F 19.9 °F 52% 30.42 in 10.0 mi NNW 10.4 mph - N/A   Clear
7:52 PM 35.1 °F 30.1 °F 21.0 °F 57% 30.43 in 10.0 mi WNW 5.8 mph - N/A   Mostly Cloudy
8:52 PM 35.1 °F 28.6 °F 21.0 °F 57% 30.44 in 10.0 mi NW 8.1 mph - N/A   Overcast
9:52 PM 32.0 °F 25.6 °F 24.1 °F 73% 30.46 in 10.0 mi North 6.9 mph - N/A   Clear
10:52 PM 32.0 °F 25.6 °F 24.1 °F 73% 30.47 in 10.0 mi North 6.9 mph - N/A   Overcast
11:52 PM 30.9 °F 23.5 °F 25.0 °F 79% 30.47 in 9.0 mi North 8.1 mph - N/A   Mostly Cloudy